#timestamp,LO_Frequency,Hit,StdDev 
1626242415.7,286046998.8,N
1626242435.5,286047001.2,N
1626242455.3,286046998.2,N
1626242475.2,286046998.1,N
1626242495.0,286046998.9,N
1626242495.9,286046998.9,N
1626242515.8,286046998.7,N
1626242535.6,286046999.5,N
1626242555.4,286046997.0,N
1626242575.3,286046998.4,N
1626242595.1,286046996.8,N
1626242615.8,286046999.6,N
1626242635.7,286046996.7,N
1626242655.5,286046998.2,N
1626242675.4,286046998.2,N
1626242695.2,286047001.2,N
1626242715.0,286046998.5,N
1626242715.9,286046998.5,N
1626242735.8,286046999.9,N
1626242755.6,286047001.2,N
1626242775.4,286046998.1,N
1626242795.3,286047001.0,N
1626242815.1,286046999.9,N
1626242835.9,286047002.7,N
1626242855.7,286047003.5,N
1626242875.5,286047004.0,N
1626242895.4,286047002.3,N
1626242915.2,286047002.5,N
1626242935.0,286047002.4,N
1626242935.9,286047002.4,N
1626242955.8,286046999.8,N
1626242975.6,286047000.4,N
1626242995.5,286047001.1,N
1626243015.3,286046999.3,N
1626243035.1,286046998.6,N
1626243055.9,286046997.1,N
1626243075.7,286046996.7,N
1626243095.5,286046998.0,N
1626243115.4,286046997.9,N
1626243135.2,286046995.7,N
1626243155.1,286046996.0,N
1626243156.0,286046996.0,N
1626243175.8,286046995.9,N
1626243195.6,286046996.3,N
1626243215.5,286046996.3,N
1626243235.3,286046993.5,N
1626243255.1,286046995.5,N
1626243275.9,286046996.0,N
1626243295.7,286046993.8,N
1626243315.6,286046993.3,N
1626243335.4,286046993.4,N
1626243355.2,286046994.4,N
1626243375.1,286046994.7,N
1626243376.0,286046994.7,N
1626243395.8,286046994.7,N
1626243415.7,286046992.3,N
1626243435.5,286046991.8,N
1626243455.3,286046991.8,N
1626243475.2,286046994.7,N
1626243495.0,286046992.8,N
1626243495.9,286046992.8,N
1626243515.7,286046992.9,N
1626243535.6,286046992.9,Y
1626243555.4,286046999.6,P
1626243575.3,286046999.4,N
1626243595.1,286046999.2,N
1626243615.8,286046998.3,N
1626243635.7,286047000.4,N
1626243655.5,286047000.6,N
1626243675.3,286047000.6,N
1626243695.2,286047000.9,N
1626243715.0,286047002.8,N
1626243715.9,286047002.8,N
1626243735.8,286047001.9,N
1626243755.6,286047003.9,N
1626243775.4,286047003.9,N
1626243795.3,286047001.4,N
1626243815.1,286047005.9,N
1626243835.8,286047007.3,N
1626243855.7,286047006.2,N
1626243875.5,286047008.2,N
1626243895.4,286047009.6,N
1626243915.2,286047009.7,N
1626243935.0,286047009.8,N
1626243935.9,286047009.8,N
1626243955.8,286047013.5,Y
1626243975.6,286047008.3,P
1626243995.5,286047006.7,N
1626244015.3,286047007.2,P
1626244035.1,286047006.7,Y
1626244055.9,286047002.7,P
1626244075.7,286047001.3,N
1626244095.5,286047002.4,N
1626244115.4,286047000.4,N
1626244135.2,286047000.1,N
1626244155.1,286047000.5,N
1626244156.0,286047000.5,N
1626244175.8,286046998.2,N
1626244195.6,286046998.6,N
1626244215.5,286046999.1,N
1626244235.3,286046999.6,N
1626244255.2,286046999.5,N
1626244275.9,286046996.3,N
1626244295.7,286046994.0,N
1626244315.6,286046994.5,N
1626244335.4,286046993.0,N
1626244355.2,286046989.0,Y
1626244375.1,286046991.1,P
1626244376.0,286046991.1,N
1626244395.8,286046990.1,N
1626244415.7,286046991.5,N
1626244435.5,286046991.3,N
1626244455.3,286046991.9,N
1626244475.2,286046993.3,N
1626244495.0,286046994.4,N
1626244495.9,286046994.4,N
1626244515.8,286046993.1,N
1626244535.6,286046990.1,Y
1626244555.4,286046996.7,P
1626244575.3,286046993.8,P
1626244595.1,286046991.9,P
1626244615.8,286046990.5,Y
1626244635.7,286046997.4,P
1626244655.5,286046995.6,N
1626244675.4,286046995.7,N
1626244695.2,286046997.5,N
1626244715.0,286046997.1,N
1626244715.9,286046997.1,N
1626244735.8,286046995.5,Y
1626244755.6,286046997.1,P
1626244775.5,286046997.6,P
1626244795.3,286046995.6,P
1626244815.1,286046996.4,Y
1626244835.9,286046998.4,P
1626244855.7,286047001.1,N
1626244875.6,286046998.1,N
1626244895.4,286047011.9,Y
1626244915.2,286046998.6,P
1626244935.1,286046996.6,P
1626244936.0,286046996.6,P
1626244955.8,286046999.3,N
1626244975.6,286046998.8,N
1626244995.5,286046999.6,N
1626245015.3,286046997.9,N
1626245035.2,286046997.8,N
1626245055.0,286046999.6,N
1626245055.9,286046999.6,N
1626245075.7,286046997.1,N
1626245095.6,286046997.8,N
1626245115.4,286046997.4,N
1626245135.3,286046996.8,Y
1626245155.1,286047001.1,P
1626245156.0,286047001.1,N
1626245175.8,286047000.8,N
1626245195.7,286047001.0,N
1626245215.5,286047001.1,N
1626245235.3,286047000.0,N
1626245255.2,286047002.8,N
1626245275.0,286047002.3,N
1626245275.9,286047002.3,N
1626245295.8,286047002.9,N
1626245315.6,286047005.1,Y
1626245335.4,286047003.4,P
1626245355.3,286047003.6,P
1626245375.1,286047002.9,N
1626245395.9,286047003.5,Y
1626245415.7,286047000.2,P
1626245435.5,286047002.3,N
1626245455.4,286047002.5,N
1626245475.2,286047000.2,N
1626245495.0,286047000.2,N
1626245495.9,286047000.2,N
1626245515.8,286046999.8,N
1626245535.6,286047000.0,N
1626245555.5,286047002.5,N
1626245575.3,286047003.9,Y
1626245595.1,286047002.0,P
1626245615.9,286047003.3,P
1626245635.7,286047003.9,P
1626245655.5,286047001.9,N
1626245675.4,286047001.8,N
1626245695.2,286047001.8,N
1626245715.1,286047002.1,N
1626245716.0,286047002.1,N
1626245735.8,286047000.3,N
1626245755.6,286047000.9,N
1626245775.5,286046999.3,N
1626245795.3,286046996.8,N
1626245815.1,286046995.0,N
1626245835.9,286046995.3,N
1626245855.7,286046995.7,N
1626245875.6,286046996.1,N
1626245895.4,286046995.8,N
1626245915.2,286046995.5,N
1626245935.1,286046995.1,N
1626245936.0,286046995.1,N
1626245955.8,286046995.9,N
1626245975.6,286046995.7,N
1626245995.5,286046996.3,N
